Showing default

LEMUR 2 ESPERANZA, 63352

Orbit data source: Space-Track

LEMUR 2 ESPERANZA, 63352 is a payload satellite owned by OroraTech (US) in SSO that was launched on Wed, 26 Mar 2025 UTC via an ELECTRON launch vehicle from the Rocket Lab Launch Complex (RLLC). Payload-class satellites include a variety of spacecraft equipped with specific instruments for various scientific and technological missions. These include communications satellites like Starlink; space stations such as the ISS; scientific satellites like the Hubble; Earth observation satellites from companies like Planet Labs, Umbra, and HawkEye 360; GPS; miniature CubeSats for education and research; and military/defense satellites.

Loading next visibility...
Identifier
63352, 2025-061B
Orbit
SSO
Last TLE update
17 hours ago
Origin
Manufacturer
Spire/Glasgow
Mission
Operational Commercial Imaging
Bus & Motor
CUBESAT 6U, Unknown motor
Mass
~15 kg wet, ~15 kg dry
Launch date (UTC)
2025-03-26 (3 months ago)
Launch vehicle
ELECTRON
Launch site
Rocket Lab Launch Complex (RLLC)
Object type
Payload
Rocket body
Debris
Shape & HBR
Box + 2 Pan, 0.4 m
Radar Cross Section
0.065 m², Medium (>0.1 m² and < 1m²)

Expand to show TLE details & history

TLE from 17 hours ago
0 LEMUR 2 ESPERANZA
1 63352U 25061B   25183.39149073  .00002682  00000-0  16912-3 0  9998
2 63352  97.5227 158.2036 0020872  32.2268 328.0232 15.09805045 14743
Epoch: 2025-07-02T09:23Z
TLE epoch observation values (Epoch: 2025-07-02T09:23:44.799Z)
Latitude
0.00001°
Longitude
96.59368°
Altitude
527.631 km
Speed
7.606 km/s
True Right ascension
10h 32m 48s
True Declination
0° 00' 00"
Sunlit
Object was in daylight at epoch
Visualization orbit readout
Latitude
-71.45991°
Longitude
120.35049°
Altitude
566.427 km
Speed
7.575 km/s
Apparent Right ascension
03h 45m 33s
Apparent Declination
-72° 55' 02"
Sunlit
Object is in daylight
Visualization observer readout
Local Sidereal Time
14:19:16
Azimuth
190.957° SSW
Elevation
-55.374°
Doppler factor
1
Orbital elements
Apogee altitude
548.206 km
Perigee altitude
519.353 km
Semi-major axis
6,911.917 km
Eccentricity
0.00209
Inclination
97.5227°
RAAN
158.2036°
Arg. of periapsis
32.2268°
True anomaly
Unknown
Mean anomaly
328.0232°
Eccentric anomaly
Unknown
Mean motion
3.77699 °/min
Orbital period
95.31 mins
BSTAR
0.00016912
Loading maneuver chart data...
Loading SW <> Apogee altitude chart data...
Loading historical data...
Loading historical data...
Loading historical data...
Loading historical data...
Loading historical data...
Loading historical data...
Loading historical data...

LEMUR 2 ESPERANZA Visibility forecast

Observer location: undefined°, undefined°

Span
Click to sort rows by Start time (UTC) header in descending order
Start Az.
Max El. time (UTC)
Max El. Az.
Max El.
End time (UTC)
End Az.
7 mins2025-07-03 11:24:13.979Z4.115° NNE2025-07-03 11:27:13.979Z308.938° NW41.33°2025-07-03 11:31:13.979Z203.626° SW
6 mins2025-07-03 22:07:13.979Z146.539° SSE2025-07-03 22:09:13.979Z99.63° ESE38.473°2025-07-03 22:13:13.979Z357.189° N
|